Theta_e
328 328 331 336 336 343 341 342 343 342 342 336 333 330 331 328 331 330 332 328 327 322 326 328 322 322 324 322 321 320 319 320 319 320 322 318 309 309 311 312 312 312 318
325 326 328 330 330 337 341 339 341 341 340 336 334 331 326 327 326 328 329 329 325 325 331 325 319 318 317 320 322 321 322 323 322 322 318 315 310 313 314 313 313 314 313
325 324 325 326 328 326 335 336 336 339 338 337 332 330 327 327 328 325 325 326 320 318 327 327 322 320 316 322 319 323 323 321 320 318 316 318 315 314 316 316 315 316 317
318 323 323 325 326 328 329 334 337 338 337 335 332 330 328 326 326 324 324 324 322 325 330 330 325 324 318 316 315 319 324 323 321 318 319 318 314 317 316 321 321 321 318
315 318 323 322 322 323 326 329 331 332 333 334 335 333 329 326 325 325 324 323 325 329 330 329 326 324 323 320 316 317 323 320 325 325 323 321 321 321 323 321 321 321 321
314 317 322 322 320 319 321 322 326 328 330 333 333 333 334 326 325 327 329 332 332 331 330 328 327 322 322 321 322 319 318 319 325 324 324 325 325 321 321 320 319 321 320
313 316 321 321 318 317 317 318 319 316 324 325 327 331 332 332 333 332 333 332 331 331 331 328 326 324 324 320 321 323 318 318 322 324 322 327 327 321 322 321 320 319 320
312 314 319 320 319 317 316 317 312 312 311 317 320 324 327 331 333 333 331 331 331 331 332 332 333 331 327 326 319 322 320 319 320 322 323 326 327 325 321 321 320 318 315
312 313 314 318 320 317 316 315 308 307 308 312 317 318 324 327 329 330 331 331 331 331 332 333 333 333 327 323 323 327 325 321 320 322 323 322 322 324 322 321 320 320 320
312 313 313 315 318 319 317 316 309 307 314 317 320 323 325 324 325 330 330 329 329 332 332 332 333 331 331 331 330 325 320 323 323 323 323 322 322 324 323 322 319 319 319
310 312 313 313 315 319 318 316 308 307 307 308 313 319 324 328 325 329 330 331 332 333 332 332 332 332 331 331 330 329 322 324 324 325 325 325 325 325 325 324 322 318 318
309 310 312 313 313 316 318 315 308 307 307 309 316 319 321 323 326 329 329 331 330 330 330 329 328 328 327 327 330 328 326 325 325 325 325 324 324 326 325 324 324 321 313
309 309 311 313 313 316 317 317 312 309 310 314 315 317 315 319 325 327 328 329 331 331 332 330 327 327 327 328 327 328 324 324 322 321 321 321 318 324 324 322 322 320 313
308 308 310 312 313 315 316 316 313 313 313 313 313 314 315 318 321 326 326 328 330 330 331 329 330 330 329 329 327 325 323 324 322 320 320 320 318 323 323 322 320 317 313
308 308 309 311 313 314 315 314 312 310 308 307 310 314 317 317 319 323 325 326 327 330 330 330 329 329 329 329 326 326 324 322 321 321 323 323 322 322 321 320 317 314 312
309 309 309 310 312 313 314 312 311 311 309 309 314 315 316 317 318 319 322 323 324 325 328 329 328 327 327 328 327 326 324 322 321 320 325 325 322 322 319 316 314 312 312
309 310 310 310 311 312 312 311 312 312 310 313 314 315 315 314 315 316 317 318 320 323 324 325 324 325 326 326 324 324 323 322 320 319 319 319 319 317 314 312 311 312 313
308 308 308 310 311 311 308 309 309 311 313 313 314 314 314 314 314 314 314 315 314 319 320 320 321 322 321 322 321 320 320 318 318 317 316 315 315 316 315 313 313 312 313
309 309 309 308 309 309 311 309 307 308 311 311 312 312 312 313 313 313 313 314 312 312 312 313 314 315 316 316 315 315 314 314 314 313 313 313 313 313 313 312 312 312 311
306 307 306 307 307 306 309 309 308 307 311 311 311 311 311 312 312 312 312 312 312 312 314 311 312 312 311 311 312 312 312 311 311 310 310 310 310 311 310 310 310 310 310
306 305 305 306 308 306 307 308 308 309 309 310 310 310 310 309 310 309 307 307 307 308 309 309 309 308 309 308 308 309 309 308 308 308 309 309 309 308 308 308 308 308 307
305 305 305 305 307 306 305 306 308 310 309 309 309 308 307 306 306 307 307 306 306 306 307 307 307 309 309 309 308 308 308 307 308 307 308 309 309 308 308 307 307 307 306
303 303 305 305 306 307 307 308 309 309 308 307 307 306 305 305 305 305 305 305 305 306 306 307 307 307 307 306 306 306 306 306 308 309 310 310 309 309 308 307 307 307 307
304 303 305 306 306 307 307 308 308 307 306 305 305 304 304 304 304 304 303 303 303 306 305 305 305 304 304 305 306 306 306 308 310 310 312 311 310 308 308 307 308 309 309
303 303 304 307 306 306 308 307 306 305 304 304 303 302 302 301 300 300 300 300 301 302 302 302 303 303 304 304 305 305 306 307 308 309 310 311 311 310 310 310 310 310 310
305 306 306 305 305 305 305 304 304 303 302 301 301 301 300 299 299 299 299 300 301 300 300 300 300 301 301 302 302 302 303 303 305 306 307 307 307 308 309 310 310 310 310
Wind_Speed
17 17 16 11 9 7 12 15 16 18 18 18 21 19 28 30 37 31 30 29 25 25 25 21 23 20 14 12 11 11 9 8 8 9 10 12 10 8 7 5 5 9 9
14 16 16 14 11 9 8 11 17 18 23 19 20 24 15 19 24 24 38 29 31 27 24 26 27 25 21 17 13 14 10 11 9 11 10 10 9 6 4 4 6 7 10
14 14 14 15 13 11 7 9 12 20 21 23 21 21 21 23 16 18 17 32 37 36 31 30 32 29 26 18 18 15 13 13 12 9 8 9 9 5 3 5 7 8 9
13 12 12 12 13 12 12 10 12 14 15 19 19 23 24 21 25 18 23 33 32 34 32 32 34 29 27 25 23 21 17 15 15 12 10 10 9 7 4 4 3 5 9
15 12 10 9 10 11 11 10 11 12 14 17 20 21 27 29 28 22 25 36 34 36 39 36 37 34 28 27 25 26 23 22 16 14 11 11 9 8 6 6 4 6 7
14 11 11 10 8 9 10 9 9 9 10 15 17 21 27 35 35 35 35 34 36 31 31 38 42 37 32 36 30 28 29 28 22 17 15 14 12 12 11 6 6 4 3
14 12 11 10 9 7 9 9 9 9 10 11 15 21 26 30 33 34 35 32 33 34 39 40 42 42 43 45 35 31 34 32 27 22 20 16 13 16 13 13 10 7 6
17 14 12 14 11 8 8 9 10 11 12 13 12 14 22 28 27 29 30 33 33 38 41 44 45 39 39 47 48 41 39 38 33 31 26 19 16 17 17 15 14 14 13
19 17 15 14 14 11 8 7 9 11 12 13 15 16 16 21 28 28 28 27 31 38 38 40 39 38 40 42 43 38 35 37 36 34 30 25 25 22 20 16 13 8 7
20 20 18 16 15 15 11 9 10 11 12 13 15 16 17 20 20 25 29 32 32 33 33 35 39 37 40 43 52 47 46 39 37 35 31 29 29 29 25 20 14 11 11
22 21 20 18 16 17 14 10 10 11 12 15 16 17 18 18 19 22 25 28 30 31 32 34 33 32 33 37 39 53 56 44 38 32 29 29 28 31 30 26 22 18 13
22 23 21 18 17 19 16 12 11 11 12 14 15 16 16 15 17 18 23 23 27 26 27 25 22 20 17 23 41 49 47 41 37 30 25 23 22 28 29 28 22 21 18
23 22 22 19 18 20 16 13 10 10 9 11 14 15 21 19 17 16 20 26 27 31 26 23 20 20 21 20 28 47 54 42 36 38 31 35 39 32 30 26 24 22 21
22 22 22 22 20 19 16 14 11 8 8 10 13 18 20 21 18 17 18 20 24 25 26 25 24 22 19 16 22 36 37 49 35 35 33 42 46 31 33 32 25 20 19
20 20 20 22 20 18 18 15 12 12 10 13 16 19 20 20 18 16 17 18 22 23 26 25 24 25 22 19 24 32 43 40 44 46 40 43 49 35 33 31 26 22 18
17 17 18 20 20 12 12 11 11 10 9 11 12 14 15 15 14 15 15 13 17 18 17 19 18 24 22 21 27 34 36 40 47 49 43 41 37 34 30 25 23 19 17
17 15 16 16 22 21 7 5 7 13 9 9 9 8 8 8 9 6 6 7 7 10 10 11 11 13 16 15 18 21 25 30 31 30 28 26 25 21 20 16 16 20 21
14 15 15 17 19 19 25 28 15 12 11 11 9 8 7 6 5 5 1 5 4 5 6 8 9 9 9 9 10 11 13 12 12 12 12 14 16 17 17 18 19 20 20
13 13 12 9 8 14 16 19 28 21 13 14 13 11 9 8 7 4 4 4 7 7 10 7 11 13 12 12 11 11 10 9 9 10 10 11 12 12 15 18 19 17 17
13 12 14 11 11 13 13 17 15 21 15 14 13 11 10 8 5 3 3 4 5 5 7 7 8 10 10 9 10 9 6 7 8 8 9 11 11 14 16 15 15 14 15
14 13 10 11 9 6 7 15 15 15 12 10 9 8 7 6 6 3 4 1 3 5 11 4 4 7 8 8 7 8 7 6 6 7 8 9 9 11 12 13 13 13 14
18 15 10 9 10 11 4 6 14 12 10 9 8 6 6 4 3 4 4 2 4 5 8 9 4 6 7 6 5 3 2 2 4 7 9 9 10 11 12 12 12 11 10
19 18 14 10 10 10 10 9 9 11 10 9 7 9 10 9 8 9 9 6 4 5 6 7 5 5 5 3 3 5 4 3 3 5 6 6 7 7 9 9 9 10 10
11 13 18 10 10 11 12 11 8 9 10 10 12 11 9 8 7 6 7 7 4 6 6 7 8 8 8 5 5 5 3 3 2 2 2 2 2 2 4 5 6 6 8
10 15 14 14 13 13 11 15 15 13 13 11 10 12 11 8 8 12 11 10 9 10 10 10 11 9 11 9 8 7 7 6 5 4 5 5 4 3 3 3 3 6 8
19 18 16 15 15 17 21 20 18 13 13 18 15 10 14 19 17 17 15 12 12 12 13 14 13 12 12 13 12 11 11 11 10 10 10 9 7 6 4 3 1 1 4
Wind_Direction
2 360 5 343 320 289 260 250 236 232 218 235 255 259 256 267 268 241 221 236 242 246 243 235 240 228 228 223 218 218 215 208 228 214 207 232 231 236 257 291 331 344 328
358 357 357 358 349 324 286 238 221 230 231 247 239 241 248 244 262 242 233 224 228 239 239 240 243 239 229 220 216 217 209 210 210 212 211 220 214 214 255 311 349 329 338
346 351 354 355 358 343 301 286 240 235 251 248 244 233 235 231 235 217 219 200 214 220 243 246 243 235 235 220 220 227 214 212 213 202 203 204 215 232 271 309 338 340 348
329 335 346 354 352 352 347 319 261 249 243 249 234 236 231 229 211 245 219 203 215 231 237 236 239 238 236 231 237 227 215 214 216 210 202 212 223 239 265 236 308 319 326
322 316 325 347 352 349 349 343 327 291 259 246 245 241 234 230 220 239 231 216 238 249 243 242 235 234 234 240 234 232 226 222 221 215 216 217 218 226 233 237 310 311 321
311 302 301 316 335 341 342 342 338 326 295 262 264 258 245 235 237 249 255 246 255 247 244 236 233 232 239 243 245 237 236 231 221 221 226 231 220 235 247 252 279 302 290
299 296 286 290 303 329 332 332 328 322 317 301 280 260 253 254 256 260 254 254 243 245 244 240 238 241 241 237 238 239 237 236 235 240 232 234 238 250 243 269 275 284 278
288 288 277 275 284 301 318 324 335 330 312 294 283 285 271 258 256 258 252 249 248 245 245 247 251 247 237 235 233 242 234 233 231 237 240 240 248 250 256 262 272 286 294
278 277 274 268 271 279 288 305 331 336 325 312 297 285 278 275 260 257 253 245 249 248 244 244 249 247 242 235 232 232 232 235 235 238 241 248 255 259 263 269 272 265 270
270 270 268 264 259 264 269 285 316 331 324 314 303 294 289 285 271 257 251 247 252 249 246 246 247 246 244 240 240 225 227 239 237 235 237 242 250 255 258 258 256 252 256
271 268 268 266 259 253 255 268 298 318 322 318 310 303 293 285 292 258 253 245 246 246 247 246 251 251 254 247 249 234 223 229 227 232 237 242 248 254 258 259 257 255 253
278 269 265 264 256 250 247 260 284 304 318 322 313 310 295 279 282 262 246 249 242 241 239 239 248 242 250 262 253 225 216 218 218 216 225 238 255 256 256 259 257 258 249
278 272 264 260 253 247 239 249 270 291 310 317 314 310 305 295 275 267 261 253 248 236 237 243 243 253 255 273 243 224 210 210 216 229 240 253 252 266 253 246 249 254 257
276 271 262 255 251 246 234 243 250 273 292 305 309 308 305 297 286 273 266 261 240 235 233 242 255 259 252 265 241 221 210 212 218 225 238 240 239 232 235 241 249 251 249
275 267 261 249 245 242 229 226 240 262 290 305 308 307 305 297 287 282 269 263 255 237 236 238 243 243 239 233 223 230 226 216 219 234 235 236 239 233 237 234 229 235 242
281 273 259 248 235 222 224 248 241 259 283 292 296 308 313 304 294 287 279 264 252 251 242 245 243 230 225 225 229 226 224 224 230 235 235 236 239 230 227 228 234 240 243
275 282 270 260 237 241 215 246 258 289 284 258 276 304 332 312 295 281 274 273 265 266 233 227 211 212 221 218 228 229 227 233 234 234 235 226 225 228 229 232 244 245 243
286 280 284 268 256 256 249 249 261 268 257 264 254 265 279 289 306 321 333 99 37 150 187 185 186 188 187 182 188 195 201 199 212 217 220 223 230 238 239 235 234 239 248
292 283 293 291 291 266 239 226 234 246 248 259 258 260 271 271 271 280 282 200 157 134 119 123 136 135 140 140 139 141 149 162 179 192 203 217 229 235 239 238 245 256 263
296 280 274 276 271 320 233 223 229 222 231 248 251 259 274 264 262 217 201 175 150 130 133 135 141 135 136 141 150 154 165 182 201 209 216 222 233 239 241 246 246 245 253
295 301 272 263 253 312 264 211 211 215 217 231 234 249 244 210 207 174 70 123 97 149 134 139 156 134 139 142 148 157 166 177 190 213 226 236 238 243 241 240 241 249 252
283 272 268 255 238 238 265 233 215 192 199 212 212 203 185 149 179 192 227 224 174 130 141 138 137 141 134 138 145 152 170 197 239 263 271 265 259 259 254 248 240 242 238
277 243 236 258 226 219 204 220 200 191 178 187 191 174 170 177 171 166 168 163 133 126 127 134 135 121 114 140 196 205 196 213 241 262 270 277 278 265 250 239 231 230 227
304 207 197 214 201 187 186 196 199 171 155 152 148 153 160 161 148 146 126 104 109 129 124 111 105 97 94 83 110 126 110 102 67 39 32 349 311 246 206 206 215 226 235
91 132 158 168 168 171 175 157 143 135 133 140 143 142 143 142 118 106 81 79 78 99 99 96 98 92 91 86 86 87 79 69 60 70 82 71 65 75 130 172 224 244 253
94 100 118 133 145 155 148 135 130 128 124 124 127 124 113 97 87 89 82 77 80 83 89 90 93 96 97 87 82 75 68 65 62 59 66 65 61 49 51 66 77 314 295